#timestamp,LO_Frequency,Hit,StdDev 
1712682015.1,286047017.6,N
1712682035.9,286047014.1,N
1712682055.7,286047011.2,N
1712682075.6,286047009.6,N
1712682095.4,286047008.9,N
1712682115.2,286047006.8,N
1712682135.1,286047005.1,N
1712682136.0,286047005.1,N
1712682155.8,286047007.6,N
1712682175.7,286047008.7,N
1712682195.5,286047010.3,N
1712682215.3,286047013.8,N
1712682235.2,286047016.3,N
1712682255.0,286047024.0,N
1712682255.9,286047024.0,N
1712682275.7,286047023.9,N
1712682295.6,286047024.4,Y
1712682315.4,286047004.5,P
1712682335.3,286047011.9,N
1712682355.1,286047009.6,N
1712682375.8,286047013.4,N
1712682395.7,286047012.8,N
1712682415.5,286047012.1,N
1712682435.4,286047012.2,Y
1712682455.2,286047002.5,P
1712682475.0,286047000.6,N
1712682475.9,286047000.6,N
1712682495.8,286047000.8,N
1712682515.6,286047001.9,N
1712682535.5,286047006.7,N
1712682555.3,286047008.0,N
1712682575.1,286047014.2,Y
1712682595.9,286047011.2,P
1712682615.7,286047015.9,P
1712682635.5,286047015.5,P
1712682655.4,286047014.2,N
1712682675.2,286047017.2,Y
1712682695.1,286047008.8,P
1712682696.0,286047008.8,P
1712682715.8,286047015.6,P
1712682735.6,286047017.1,Y
1712682755.5,286047002.2,P
1712682775.3,286047004.4,N
1712682795.2,286047000.6,N
1712682815.9,286046999.3,N
1712682835.7,286046998.5,N
1712682855.6,286046998.2,N
1712682875.4,286046998.9,N
1712682895.2,286046998.1,N
1712682915.1,286046999.8,N
1712682916.0,286046999.8,N
1712682935.8,286047002.5,N
1712682955.7,286046999.5,N
1712682975.5,286046997.5,N
1712682995.3,286047000.8,N
1712683015.2,286047001.1,N
1712683035.0,286046999.3,N
1712683035.9,286046999.3,N
1712683055.8,286046998.2,N
1712683075.6,286046998.1,N
1712683095.4,286046998.8,N
1712683115.3,286047004.2,N
1712683135.1,286047010.1,Y
1712683155.8,286047028.9,P
1712683175.7,286047035.4,N
1712683195.5,286047041.8,N
1712683215.4,286047043.3,N
1712683235.2,286047050.6,Y
1712683255.0,286047028.8,P
1712683255.9,286047028.8,P
1712683275.8,286047028.6,P
1712683325.6,286047022.6,E
1712683335.6,286047013.4,N
1712683355.4,286047001.1,P
1712683375.2,286047001.1,N
1712683395.1,286046997.2,N
1712683396.0,286046997.2,N
1712683415.8,286046996.0,N
1712683435.6,286046992.8,N
1712683455.5,286046993.2,N
1712683475.3,286046989.5,N
1712683495.2,286046992.7,N
1712683515.9,286046991.4,N
1712683535.7,286046986.9,N
1712683555.6,286046986.5,N
1712683575.4,286046983.1,N
1712683595.2,286046980.6,N
1712683615.1,286046984.3,N
1712683616.0,286046984.3,N
1712683635.8,286046982.4,N
1712683655.7,286046981.7,N
1712683675.5,286046980.1,N
1712683695.3,286046977.2,N
1712683715.2,286046974.0,Y
1712683735.0,286046986.1,P
1712683735.9,286046986.1,P
1712683755.8,286046986.4,P
1712683775.6,286046985.1,Y
1712683795.4,286046996.2,P
1712683815.3,286046999.1,N
1712683835.1,286046998.3,N
1712683855.8,286046994.9,N
1712683875.7,286046994.0,N
1712683895.5,286046989.0,N
1712683915.4,286046985.9,Y
1712683935.2,286046992.5,P
1712683955.0,286046991.2,P
1712683955.9,286046991.2,P
1712683975.8,286046989.5,Y
1712683995.6,286046992.8,P
1712684015.5,286046990.8,P
1712684035.3,286046988.9,P
1712684055.1,286046989.6,Y
1712684075.9,286046995.6,P
1712684095.7,286046994.7,N
1712684115.6,286046992.7,P
1712684135.4,286046991.1,Y
1712684155.2,286046997.6,P
1712684175.1,286046998.9,N
1712684176.0,286046998.9,N
1712684195.8,286046998.4,N
1712684215.6,286046999.1,N
1712684235.5,286047000.0,N
1712684255.3,286047000.0,N
1712684275.2,286047002.7,N
1712684295.9,286047002.2,N
1712684315.7,286047002.1,N
1712684335.6,286047002.8,N
1712684355.4,286046998.9,N
1712684375.2,286047000.1,N
1712684395.1,286047002.8,N
1712684396.0,286047002.8,N
1712684415.8,286047001.5,N
1712684435.7,286047000.3,N
1712684455.5,286047000.5,N
1712684475.3,286046999.9,N
1712684495.2,286047002.4,N
1712684515.0,286047002.5,N
1712684515.9,286047002.5,N
1712684535.8,286047007.5,Y
1712684555.6,286047013.3,P
1712684575.4,286047012.8,N
1712684595.3,286047016.7,N
1712684615.1,286047023.2,Y
1712684635.8,286047012.5,P
1712684655.7,286047021.6,P
1712684675.5,286047026.4,P
1712684695.4,286047028.4,Y
1712684715.2,286047012.4,P
1712684735.0,286047018.0,P
1712684735.9,286047018.0,P
1712684755.8,286047022.5,Y
1712684775.6,286047007.3,P
1712684795.5,286047007.5,N
1712684815.3,286047009.3,N
1712684835.1,286047015.7,Y
1712684855.9,286047008.2,P
1712684875.7,286047022.0,P
1712684895.5,286047022.5,P
1712684915.4,286047020.3,Y
1712684935.2,286046998.8,P
1712684955.1,286046998.5,N
1712684956.0,286046998.5,N
1712684975.8,286046998.7,N
1712684995.6,286046999.3,N
1712685015.5,286046999.6,N
1712685035.3,286046995.0,N
1712685055.1,286046995.8,N
1712685075.9,286046996.3,N
1712685095.7,286046996.0,N
1712685115.6,286046997.3,N
1712685135.4,286046995.5,N
1712685155.2,286046994.2,N
1712685175.1,286046993.1,N
1712685176.0,286046993.1,N
1712685195.8,286046990.7,N
1712685215.7,286046991.1,N
1712685235.5,286046989.9,N
1712685255.3,286046987.9,N
1712685275.2,286046984.5,N
1712685295.9,286046980.7,Y
1712685315.7,286046986.7,P
1712685335.6,286046984.2,P
1712685355.4,286046986.3,N
1712685375.3,286046985.4,Y
1712685395.1,286047000.0,P
1712685396.0,286047000.0,N
1712685445.9,286046998.9,E
1712685455.8,286046998.8,N
1712685475.6,286046999.1,P
1712685495.5,286046998.0,P
1712685515.3,286046993.7,Y
1712685535.1,286046993.7,P
1712685555.9,286046990.6,P
1712685575.7,286046990.1,P
1712685595.6,286046991.4,N
